RH
70 73 72 63 53 39 34 33 30 25 10 9 13 16 15 14 11 9 9 9 9 10 10 11 13 15 17 24 34 44 53 68 98 31 30 27 45 56 87 96 99 100 100
68 71 68 60 46 41 36 30 23 8 8 9 10 11 11 11 11 11 12 13 13 13 13 12 13 13 13 14 16 18 24 34 40 32 22 17 22 31 38 94 95 97 97
69 68 60 51 48 40 30 16 11 9 9 11 12 12 12 13 14 14 15 16 16 17 18 17 16 16 15 15 15 14 16 21 23 28 26 24 20 17 19 27 87 97 97
67 60 50 52 48 35 18 11 10 10 12 13 14 14 15 15 16 16 17 18 19 20 21 21 21 19 18 17 17 16 16 16 18 20 21 19 16 16 23 18 14 80 92
60 51 48 52 43 27 16 13 12 13 14 15 16 17 17 16 16 17 18 18 20 21 22 23 24 23 20 19 19 18 17 16 17 18 18 18 17 13 19 29 25 30 54
54 46 45 44 41 26 21 18 16 16 16 17 18 18 16 13 13 14 14 16 18 20 21 22 24 25 23 21 20 19 18 18 18 20 22 22 24 20 20 27 24 26 76
50 46 40 42 39 29 25 21 23 21 22 22 19 16 13 11 11 11 12 13 17 18 19 21 22 24 24 24 23 22 20 20 19 20 23 26 24 27 26 20 20 23 89
51 44 39 40 40 32 26 25 26 27 29 32 25 19 12 9 8 8 8 10 14 17 18 19 22 24 23 24 24 23 22 21 21 21 21 22 23 23 24 28 22 16 24
48 38 36 40 35 30 25 26 29 29 32 31 26 20 14 9 7 7 8 10 12 14 17 20 22 23 25 25 25 25 24 23 23 23 23 23 22 21 21 19 17 17 15
46 34 36 36 30 26 26 28 32 34 35 30 25 22 14 10 7 7 8 8 11 14 16 17 20 22 24 25 27 28 27 26 24 23 22 22 22 22 22 22 24 26 28
42 36 38 38 33 30 32 35 37 38 35 29 25 21 14 10 8 8 8 8 10 12 14 16 20 24 26 27 28 29 29 29 27 26 24 23 23 23 24 25 27 30 31
43 39 38 40 37 38 41 41 42 42 36 30 25 19 12 9 9 10 10 10 12 17 16 20 24 29 32 31 32 32 32 32 30 28 27 25 24 25 26 28 29 30 30
49 46 42 39 39 43 42 43 44 40 37 31 21 13 10 12 16 17 16 18 22 24 25 30 37 39 38 38 36 36 36 34 33 31 32 33 33 32 31 27 28 29 30
48 49 44 39 41 43 43 47 47 37 31 21 13 12 17 21 25 28 32 37 38 43 43 41 40 44 42 41 42 40 38 37 36 36 38 38 38 36 34 31 28 24 21
49 43 40 40 41 44 46 45 32 27 22 14 15 24 28 32 37 47 48 46 58 64 65 64 52 49 47 44 43 42 41 41 40 41 41 40 38 35 32 31 29 28 29
45 45 38 38 34 33 32 25 18 19 17 18 22 21 27 42 60 71 74 78 82 84 85 80 68 57 51 48 47 46 44 44 45 48 49 48 46 43 39 36 33 31 30
46 44 34 29 30 26 19 16 16 18 22 26 24 25 36 64 77 86 86 100 95 90 89 85 81 70 60 55 52 49 49 48 50 53 56 57 55 54 53 53 50 44 36
46 42 39 24 16 16 14 16 24 34 32 30 30 37 53 70 79 84 88 99 94 94 88 88 84 77 67 57 53 52 53 53 56 58 60 60 60 63 65 67 70 76 76
30 28 21 19 14 14 17 31 42 47 44 32 31 40 57 76 91 96 100 98 96 96 93 91 87 80 68 58 54 53 56 60 62 63 66 68 72 75 78 82 83 85 88
20 19 16 16 17 20 31 39 45 49 51 42 34 48 71 90 92 89 94 96 96 95 96 95 93 82 68 59 58 60 61 65 70 73 75 78 84 85 89 91 94 98 99
19 19 19 19 22 37 48 52 54 57 62 41 46 58 82 92 88 95 98 97 97 92 95 96 93 82 70 64 64 65 69 75 82 88 95 95 93 91 93 98 100 100 100
32 31 30 29 41 53 55 56 58 57 48 46 64 74 93 94 92 95 95 95 95 94 93 93 88 79 76 74 74 79 88 93 91 95 98 98 99 100 100 100 100 100 100
47 50 55 59 61 62 66 65 58 41 40 74 86 83 90 89 94 97 96 95 96 96 96 95 85 77 78 79 85 93 98 99 100 100 100 100 100 100 100 100 100 99 100
55 58 64 67 70 72 74 73 69 50 70 92 96 95 94 94 98 97 97 96 96 95 97 95 87 73 72 78 86 95 99 98 98 98 100 100 100 100 100 100 97 97 100
56 59 65 68 70 67 62 58 52 57 74 85 92 95 95 98 97 96 97 96 95 95 96 94 88 90 91 96 96 92 94 99 99 100 100 99 92 67 46 47 50 57 79
60 61 62 64 66 67 66 64 62 59 58 64 78 92 96 95 97 97 96 95 96 96 96 94 96 98 98 95 94 96 73 40 38 40 42 44 46 49 52 54 56 59 62
Wind_Speed
7 6 4 3 1 2 3 5 6 8 9 10 12 12 13 13 15 16 17 18 18 18 18 19 19 19 17 16 16 15 16 17 18 25 25 28 31 31 31 24 16 10 19
9 8 6 5 3 3 5 6 8 9 11 11 12 13 13 14 16 17 18 19 19 19 19 20 21 21 20 20 20 19 20 20 21 25 28 28 31 31 32 30 23 11 22
12 10 9 7 6 5 6 8 10 11 11 12 13 13 14 15 16 16 17 18 18 18 18 18 20 21 21 21 22 22 22 21 22 24 27 29 31 33 31 29 30 17 22
14 11 11 10 9 8 8 10 10 11 11 12 12 12 12 11 12 13 14 15 16 17 17 18 18 20 21 22 23 23 23 24 25 26 28 31 33 35 35 36 33 26 27
15 14 14 13 11 10 11 10 10 10 10 10 9 10 10 10 12 13 13 14 15 17 17 17 18 17 19 21 22 23 24 25 26 28 30 32 36 38 40 38 36 29 21
17 16 16 15 14 12 11 11 9 9 7 6 7 8 10 11 12 12 13 14 14 15 15 16 16 16 17 18 20 22 23 24 25 27 28 30 32 33 33 34 35 34 26
19 19 18 17 15 14 12 11 9 7 4 4 6 8 9 10 10 11 12 13 13 15 15 16 16 17 17 18 20 20 20 21 22 23 25 27 28 30 31 31 31 28 15
22 21 20 18 17 16 14 12 9 6 4 3 4 6 7 8 10 11 12 12 13 13 15 15 15 16 16 16 17 18 20 21 23 23 22 23 24 26 27 28 29 29 22
23 22 21 19 18 17 15 12 10 7 4 1 2 4 5 6 8 9 10 10 11 11 12 13 12 13 14 14 15 16 16 17 19 19 19 18 19 22 25 26 29 32 33
24 21 20 19 17 16 14 12 10 8 4 2 2 3 5 6 8 9 9 10 10 11 12 12 14 15 16 16 17 18 19 21 21 18 17 17 18 20 22 26 27 29 30
21 20 20 18 16 15 14 12 10 8 5 4 4 5 6 7 9 11 11 11 12 12 12 13 14 15 17 18 19 19 20 19 18 18 18 18 19 21 23 23 24 24 26
21 20 20 18 18 16 15 13 12 9 7 6 6 7 8 10 11 13 14 13 12 12 12 11 13 14 15 17 17 18 17 17 17 17 18 20 21 22 23 23 22 21 20
21 20 19 19 19 18 17 15 14 12 10 8 8 10 11 12 11 11 11 12 11 11 11 12 13 13 13 14 16 16 15 15 17 18 19 20 21 21 21 20 19 19 19
20 20 20 20 20 19 19 17 16 14 12 11 11 12 12 11 10 10 9 10 9 10 10 11 12 12 12 12 12 13 14 15 16 17 18 19 20 22 23 23 23 23 21
21 22 21 21 21 20 20 18 15 15 14 13 13 13 11 10 10 9 10 9 9 9 11 13 12 11 11 11 12 13 13 14 14 16 17 19 20 21 23 24 25 25 25
23 24 23 22 22 21 19 18 17 16 14 15 15 13 12 10 8 8 9 10 11 11 12 14 14 12 11 11 11 12 13 15 15 16 18 20 22 23 23 23 25 27 28
24 24 24 24 24 23 22 20 18 16 16 16 14 13 13 11 10 9 10 10 12 13 14 14 15 13 12 11 11 12 13 14 15 16 17 19 21 22 23 25 26 27 28
25 25 24 24 24 23 22 19 17 18 16 14 14 15 14 13 12 13 11 11 14 14 15 15 14 13 12 11 10 10 11 13 15 16 17 18 21 23 24 25 26 28 30
25 26 25 24 23 22 21 20 20 19 18 15 16 16 14 13 14 14 15 17 15 15 14 15 14 13 12 9 10 10 10 12 14 15 16 19 21 23 25 26 27 28 31
24 24 24 24 24 24 23 22 21 20 18 18 18 16 15 15 17 15 15 15 16 15 14 15 14 13 11 9 9 10 11 13 15 17 18 20 22 24 26 28 29 31 32
22 23 24 25 24 23 21 21 20 20 20 20 18 16 15 16 16 15 16 16 16 15 14 14 14 13 11 10 11 13 15 18 20 22 23 24 25 27 28 30 32 35 35
20 21 23 24 23 23 22 21 21 21 21 20 19 17 17 18 15 16 16 16 15 15 14 14 14 12 11 13 14 17 21 24 26 28 30 32 32 33 34 34 34 35 35
19 20 21 22 21 21 21 22 22 22 21 20 17 16 18 17 16 16 16 15 15 15 14 13 13 13 13 15 18 22 26 29 32 34 37 37 37 36 34 33 36 35 32
17 19 21 21 21 22 23 24 23 22 21 21 20 19 19 19 18 17 18 16 16 16 14 13 15 15 17 20 23 27 30 32 32 33 32 32 33 33 36 39 37 34 31
14 16 18 20 21 21 21 21 21 21 21 20 20 20 20 19 21 19 19 17 17 17 17 15 16 18 22 25 27 28 31 33 33 33 33 35 37 37 34 32 31 30 29
15 17 17 18 20 20 21 21 21 21 21 21 19 18 18 19 20 19 18 18 17 17 16 16 19 22 25 27 31 33 34 32 31 30 30 30 30 29 29 28 27 27 26
Wind_Direction
212 215 218 234 239 75 79 73 65 57 60 63 60 57 54 51 48 43 41 39 37 35 34 34 33 29 25 24 22 17 15 6 342 359 2 1 3 11 6 3 354 10 6
213 206 213 213 184 135 102 92 87 82 76 72 68 63 58 55 52 46 42 39 37 34 31 29 31 30 28 26 22 19 18 15 1 358 7 10 9 10 20 10 7 20 10
210 203 203 195 164 140 119 112 109 88 83 77 70 62 55 50 46 42 38 35 32 31 29 25 25 25 26 24 21 18 18 15 12 7 7 10 13 11 18 24 17 11 15
206 199 193 183 165 151 132 124 117 101 88 79 70 61 53 47 45 41 35 31 28 27 26 24 24 21 19 19 18 15 14 13 13 11 10 10 12 13 17 13 18 16 16
194 193 184 179 172 160 144 131 125 112 94 81 71 63 53 46 42 36 29 25 22 21 19 21 24 19 17 16 14 13 11 12 11 12 10 10 10 12 12 9 10 12 22
193 187 183 182 176 166 153 145 134 116 100 87 69 57 44 36 35 30 24 20 17 16 17 17 18 20 19 17 14 10 9 11 11 11 10 9 8 7 9 9 9 11 7
190 188 185 183 181 171 165 159 148 129 127 95 68 52 36 28 26 23 19 16 11 8 10 12 13 14 16 13 13 10 11 12 10 10 9 8 5 3 3 6 11 16 11
189 191 189 186 184 178 174 171 162 162 164 97 57 42 30 20 15 10 8 7 4 2 1 5 7 7 10 9 8 5 7 9 12 11 10 6 2 359 3 5 7 11 20
194 193 191 188 186 182 180 180 179 189 186 129 24 18 11 5 4 0 0 359 357 354 356 355 5 3 11 9 5 5 8 12 11 9 8 8 3 359 358 357 7 10 14
196 194 191 191 190 187 186 189 190 200 201 239 299 326 341 348 348 352 353 352 350 350 352 353 355 360 4 8 5 6 6 9 5 0 359 2 6 8 6 5 7 11 11
194 192 194 194 193 194 195 201 207 211 221 246 275 303 321 329 335 336 342 343 344 345 346 347 351 358 358 1 2 2 5 2 355 354 356 358 3 7 10 12 12 8 9
194 196 197 197 198 201 206 212 217 223 236 253 273 293 310 318 323 326 328 331 335 339 340 344 348 355 355 354 356 356 357 353 352 354 355 359 2 5 8 6 9 11 8
197 200 202 204 205 207 214 220 227 236 247 260 273 288 301 307 313 317 321 324 331 342 346 349 350 348 349 350 350 351 352 351 354 356 3 6 5 3 1 359 0 0 359
202 204 208 211 212 214 217 223 233 242 251 261 273 284 289 296 302 305 312 320 330 344 348 351 348 342 341 344 347 347 350 352 356 2 7 6 4 3 2 0 358 354 351
206 208 211 214 218 224 228 234 239 243 247 256 268 274 281 290 291 291 304 322 337 343 341 348 341 336 336 341 345 349 352 354 356 2 3 2 2 1 1 359 359 358 358
214 214 216 218 222 225 229 234 240 246 251 262 269 275 277 280 276 285 308 323 335 332 329 333 331 334 335 340 344 348 350 355 358 360 1 1 1 1 360 360 359 359 357
222 223 223 224 226 227 230 235 239 244 252 258 269 276 274 271 273 281 298 310 309 316 316 321 323 329 333 333 337 342 348 353 356 355 354 356 358 359 358 357 357 357 358
231 231 231 230 229 228 231 236 239 243 251 260 272 268 264 263 266 273 284 279 289 300 304 308 313 319 323 323 328 333 342 347 350 352 351 350 351 352 352 352 353 353 354
232 230 228 227 227 230 233 237 242 246 255 264 271 268 262 260 266 270 270 277 287 289 291 298 303 310 316 316 324 330 335 340 344 347 347 345 342 342 342 342 341 343 343
229 229 228 228 228 231 236 241 245 251 259 267 267 268 257 257 261 271 277 276 283 289 283 291 296 303 306 307 314 321 325 329 332 333 333 332 332 331 332 332 332 330 331
232 230 228 228 231 235 242 248 253 257 265 268 267 264 255 261 268 270 275 275 284 286 282 287 289 294 296 301 305 308 312 316 317 316 315 315 316 317 320 321 319 320 320
231 230 230 233 237 242 247 253 258 263 265 264 266 260 254 261 269 273 272 275 283 284 281 280 286 288 289 294 300 303 305 305 307 307 305 306 306 306 309 306 311 312 311
230 231 233 236 240 247 253 257 261 261 260 257 261 256 254 264 271 272 271 275 274 279 276 275 279 280 284 287 290 293 297 300 302 302 300 300 300 302 303 303 308 309 306
234 236 240 244 248 254 260 263 264 260 257 257 257 258 262 265 271 271 264 268 271 274 268 263 267 276 287 293 297 300 301 303 303 303 302 301 301 301 302 303 304 304 301
242 242 244 248 252 258 261 260 257 256 257 260 260 262 266 264 267 263 264 264 270 266 261 263 273 284 292 297 300 302 304 303 303 301 299 298 298 300 302 302 302 300 298
249 250 251 253 255 258 261 260 259 260 261 263 264 264 264 267 264 258 254 266 268 266 264 272 283 290 295 300 304 306 306 305 303 302 302 303 304 305 305 304 304 303 303